Year,Month,Day,Hour,Minute,Value (Times are PST for temperature in C)
2019,03,09,00,00,-1.10
2019,03,09,00,01,-1.10
2019,03,09,00,02,-1.10
2019,03,09,00,03,-1.10
2019,03,09,00,04,-1.10
2019,03,09,00,05,-1.10
2019,03,09,00,06,-1.10
2019,03,09,00,08,-1.20
2019,03,09,00,09,-1.20
2019,03,09,00,10,-1.20
2019,03,09,00,11,-1.20
2019,03,09,00,12,-1.20
2019,03,09,00,13,-1.20
2019,03,09,00,14,-1.20
2019,03,09,00,15,-1.20
2019,03,09,00,16,-1.20
2019,03,09,00,17,-1.20
2019,03,09,00,18,-1.30
2019,03,09,00,19,-1.20
2019,03,09,00,20,-1.30
2019,03,09,00,21,-1.30
2019,03,09,00,22,-1.30
2019,03,09,00,23,-1.30
2019,03,09,00,24,-1.30
2019,03,09,00,25,-1.30
2019,03,09,00,26,-1.30
2019,03,09,00,27,-1.30
2019,03,09,00,28,-1.40
2019,03,09,00,29,-1.40
2019,03,09,00,30,-1.40
2019,03,09,00,31,-1.40
2019,03,09,00,32,-1.40
2019,03,09,00,33,-1.40
2019,03,09,00,34,-1.40
2019,03,09,00,35,-1.40
2019,03,09,00,36,-1.40
2019,03,09,00,37,-1.50
2019,03,09,00,38,-1.50
2019,03,09,00,39,-1.50
2019,03,09,00,40,-1.50
2019,03,09,00,41,-1.50
2019,03,09,00,42,-1.50
2019,03,09,00,43,-1.50
2019,03,09,00,44,-1.50
2019,03,09,00,45,-1.50
2019,03,09,00,46,-1.60
2019,03,09,00,47,-1.60
2019,03,09,00,48,-1.60
2019,03,09,00,49,-1.60
2019,03,09,00,50,-1.60
2019,03,09,00,51,-1.60
2019,03,09,00,52,-1.60
2019,03,09,00,53,-1.60
2019,03,09,00,54,-1.70
2019,03,09,00,55,-1.70
2019,03,09,00,56,-1.70
2019,03,09,00,57,-1.70
2019,03,09,00,58,-1.70
2019,03,09,00,59,-1.70
2019,03,09,01,00,-1.70
2019,03,09,01,01,-1.70
2019,03,09,01,02,-1.70
2019,03,09,01,03,-1.70
2019,03,09,01,04,-1.70
2019,03,09,01,05,-1.70
2019,03,09,01,06,-1.70
2019,03,09,01,07,-1.70
2019,03,09,01,08,-1.70
2019,03,09,01,09,-1.70
2019,03,09,01,10,-1.70
2019,03,09,01,11,-1.80
2019,03,09,01,12,-1.80
2019,03,09,01,13,-1.80
2019,03,09,01,14,-1.80
2019,03,09,01,15,-1.80
2019,03,09,01,16,-1.80
2019,03,09,01,17,-1.80
2019,03,09,01,19,-1.80
2019,03,09,01,20,-1.90
2019,03,09,01,21,-1.90
2019,03,09,01,22,-1.90
2019,03,09,01,23,-1.90
2019,03,09,01,24,-1.90
2019,03,09,01,25,-1.90
2019,03,09,01,26,-1.90
2019,03,09,01,27,-1.90
2019,03,09,01,28,-1.90
2019,03,09,01,29,-1.90
2019,03,09,01,30,-1.90
2019,03,09,01,31,-1.90
2019,03,09,01,32,-1.90
2019,03,09,01,33,-1.90
2019,03,09,01,34,-1.90
2019,03,09,01,35,-1.90
2019,03,09,01,36,-1.90
2019,03,09,01,37,-1.90
2019,03,09,01,38,-1.90
2019,03,09,01,39,-1.90
2019,03,09,01,40,-1.90
2019,03,09,01,41,-1.90
2019,03,09,01,42,-1.90
2019,03,09,01,43,-1.90
2019,03,09,01,44,-1.90
2019,03,09,01,45,-1.90
2019,03,09,01,47,-2.00
2019,03,09,01,48,-2.00
2019,03,09,01,49,-2.00
2019,03,09,01,50,-2.10
2019,03,09,01,51,-2.10
2019,03,09,01,52,-2.10
2019,03,09,01,53,-2.10
2019,03,09,01,54,-2.10
2019,03,09,01,55,-2.20
2019,03,09,01,56,-2.20
2019,03,09,01,57,-2.20
2019,03,09,01,59,-2.20
2019,03,09,02,00,-2.20
2019,03,09,02,01,-2.20
2019,03,09,02,02,-2.20
2019,03,09,02,03,-2.30
2019,03,09,02,04,-2.30
2019,03,09,02,05,-2.30
2019,03,09,02,06,-2.30
2019,03,09,02,07,-2.30
2019,03,09,02,08,-2.30
2019,03,09,02,09,-2.30
2019,03,09,02,10,-2.30
2019,03,09,02,11,-2.30
2019,03,09,02,12,-2.30
2019,03,09,02,13,-2.30
2019,03,09,02,14,-2.30
2019,03,09,02,15,-2.30
2019,03,09,02,16,-2.40
2019,03,09,02,17,-2.30
2019,03,09,02,18,-2.30
2019,03,09,02,19,-2.30
2019,03,09,02,20,-2.30
2019,03,09,02,21,-2.30
2019,03,09,02,22,-2.30
2019,03,09,02,23,-2.30
2019,03,09,02,24,-2.30
2019,03,09,02,25,-2.40
2019,03,09,02,26,-2.40
2019,03,09,02,27,-2.40
2019,03,09,02,28,-2.40
2019,03,09,02,29,-2.40
2019,03,09,02,30,-2.40
2019,03,09,02,31,-2.30
2019,03,09,02,32,-2.30
2019,03,09,02,33,-2.30
2019,03,09,02,34,-2.30
2019,03,09,02,35,-2.30
2019,03,09,02,36,-2.30
2019,03,09,02,37,-2.30
2019,03,09,02,38,-2.30
2019,03,09,02,39,-2.30
2019,03,09,02,40,-2.30
2019,03,09,02,41,-2.30
2019,03,09,02,42,-2.30
2019,03,09,02,43,-2.30
2019,03,09,02,44,-2.40
2019,03,09,02,45,-2.40
2019,03,09,02,46,-2.40
2019,03,09,02,47,-2.40
2019,03,09,02,48,-2.40
2019,03,09,02,49,-2.40
2019,03,09,02,50,-2.40
2019,03,09,02,51,-2.40
2019,03,09,02,52,-2.40
2019,03,09,02,53,-2.40
2019,03,09,02,54,-2.40
2019,03,09,02,55,-2.40
2019,03,09,02,56,-2.40
2019,03,09,02,57,-2.40
2019,03,09,02,58,-2.40
2019,03,09,02,59,-2.40
2019,03,09,03,00,-2.40
2019,03,09,03,01,-2.40
2019,03,09,03,02,-2.40
2019,03,09,03,03,-2.40
2019,03,09,03,04,-2.40
2019,03,09,03,05,-2.40
2019,03,09,03,06,-2.40
2019,03,09,03,07,-2.40
2019,03,09,03,08,-2.40
2019,03,09,03,09,-2.50
2019,03,09,03,10,-2.50
2019,03,09,03,11,-2.50
2019,03,09,03,12,-2.50
2019,03,09,03,13,-2.60
2019,03,09,03,14,-2.60
2019,03,09,03,15,-2.60
2019,03,09,03,16,-2.60
2019,03,09,03,17,-2.60
2019,03,09,03,18,-2.60
2019,03,09,03,19,-2.60
2019,03,09,03,20,-2.60
2019,03,09,03,21,-2.60
2019,03,09,03,22,-2.60
2019,03,09,03,23,-2.70
2019,03,09,03,24,-2.70
2019,03,09,03,25,-2.70
2019,03,09,03,26,-2.70
2019,03,09,03,27,-2.70
2019,03,09,03,28,-2.70
2019,03,09,03,29,-2.70
2019,03,09,03,30,-2.70
2019,03,09,03,31,-2.70
2019,03,09,03,32,-2.70
2019,03,09,03,33,-2.70
2019,03,09,03,34,-2.70
2019,03,09,03,35,-2.70
2019,03,09,03,36,-2.70
2019,03,09,03,37,-2.70
2019,03,09,03,38,-2.70
2019,03,09,03,39,-2.70
2019,03,09,03,40,-2.80
2019,03,09,03,41,-2.80
2019,03,09,03,42,-2.80
2019,03,09,03,43,-2.80
2019,03,09,03,44,-2.80
2019,03,09,03,45,-2.80
2019,03,09,03,46,-2.80
2019,03,09,03,47,-2.80
2019,03,09,03,48,-2.80
2019,03,09,03,49,-2.80
2019,03,09,03,51,-2.80
2019,03,09,03,52,-2.80
2019,03,09,03,53,-2.80
2019,03,09,03,54,-2.80
2019,03,09,03,55,-2.80
2019,03,09,03,56,-2.80
2019,03,09,03,57,-2.80
2019,03,09,03,58,-2.80
2019,03,09,03,59,-2.80
2019,03,09,04,00,-2.80
2019,03,09,04,01,-2.80
2019,03,09,04,02,-2.80
2019,03,09,04,03,-2.80
2019,03,09,04,04,-2.90
2019,03,09,04,05,-2.90
2019,03,09,04,06,-2.90
2019,03,09,04,07,-2.90
2019,03,09,04,08,-2.90
2019,03,09,04,09,-2.90
2019,03,09,04,10,-2.90
2019,03,09,04,11,-2.90
2019,03,09,04,12,-2.90
2019,03,09,04,13,-2.90
2019,03,09,04,14,-2.90
2019,03,09,04,15,-2.90
2019,03,09,04,16,-2.90
2019,03,09,04,17,-3.00
2019,03,09,04,18,-3.00
2019,03,09,04,19,-3.00
2019,03,09,04,20,-3.10
2019,03,09,04,21,-3.10
2019,03,09,04,22,-3.10
2019,03,09,04,23,-3.10
2019,03,09,04,24,-3.10
2019,03,09,04,25,-3.10
2019,03,09,04,26,-3.10
2019,03,09,04,27,-3.10
2019,03,09,04,28,-3.10
2019,03,09,04,29,-3.10
2019,03,09,04,30,-3.20
2019,03,09,04,31,-3.20
2019,03,09,04,32,-3.20
2019,03,09,04,33,-3.20
2019,03,09,04,34,-3.20
2019,03,09,04,36,-3.20
2019,03,09,04,37,-3.20
2019,03,09,04,38,-3.20
2019,03,09,04,39,-3.20
2019,03,09,04,41,-3.10
2019,03,09,04,42,-3.10
2019,03,09,04,43,-3.10
2019,03,09,04,44,-3.20
2019,03,09,04,45,-3.20
2019,03,09,04,46,-3.20
2019,03,09,04,47,-3.20
2019,03,09,04,48,-3.20
2019,03,09,04,49,-3.20
2019,03,09,04,50,-3.20
2019,03,09,04,51,-3.20
2019,03,09,04,52,-3.20
2019,03,09,04,53,-3.30
2019,03,09,04,54,-3.30
2019,03,09,04,55,-3.30
2019,03,09,04,56,-3.30
2019,03,09,04,57,-3.30
2019,03,09,04,58,-3.30
2019,03,09,04,59,-3.30
2019,03,09,05,00,-3.30
2019,03,09,05,01,-3.40
2019,03,09,05,02,-3.30
2019,03,09,05,03,-3.40
2019,03,09,05,04,-3.40
2019,03,09,05,05,-3.40
2019,03,09,05,06,-3.40
2019,03,09,05,07,-3.40
2019,03,09,05,08,-3.40
2019,03,09,05,09,-3.40
2019,03,09,05,10,-3.40
2019,03,09,05,11,-3.40
2019,03,09,05,12,-3.40
2019,03,09,05,13,-3.40
2019,03,09,05,14,-3.40
2019,03,09,05,15,-3.40
2019,03,09,05,16,-3.40
2019,03,09,05,17,-3.40
2019,03,09,05,18,-3.40
2019,03,09,05,19,-3.40
2019,03,09,05,20,-3.40
2019,03,09,05,21,-3.40
2019,03,09,05,22,-3.40
2019,03,09,05,23,-3.40
2019,03,09,05,24,-3.40
2019,03,09,05,25,-3.40
2019,03,09,05,26,-3.40
2019,03,09,05,27,-3.40
2019,03,09,05,28,-3.40
2019,03,09,05,29,-3.40
2019,03,09,05,30,-3.40
2019,03,09,05,31,-3.30
2019,03,09,05,32,-3.30
2019,03,09,05,33,-3.30
2019,03,09,05,34,-3.30
2019,03,09,05,35,-3.30
2019,03,09,05,36,-3.30
2019,03,09,05,37,-3.30
2019,03,09,05,39,-3.30
2019,03,09,05,40,-3.30
2019,03,09,05,41,-3.30
2019,03,09,05,42,-3.30
2019,03,09,05,43,-3.30
2019,03,09,05,44,-3.30
2019,03,09,05,45,-3.30
2019,03,09,05,46,-3.30
2019,03,09,05,47,-3.30
2019,03,09,05,48,-3.30
2019,03,09,05,49,-3.40
2019,03,09,05,50,-3.40
2019,03,09,05,51,-3.40
2019,03,09,05,52,-3.40
2019,03,09,05,53,-3.40
2019,03,09,05,54,-3.40
2019,03,09,05,55,-3.40
2019,03,09,05,56,-3.40
2019,03,09,05,57,-3.40
2019,03,09,05,58,-3.40
2019,03,09,05,59,-3.40
2019,03,09,06,00,-3.40
2019,03,09,06,01,-3.40
2019,03,09,06,02,-3.40
2019,03,09,06,03,-3.40
2019,03,09,06,04,-3.40
2019,03,09,06,05,-3.40
2019,03,09,06,06,-3.40
2019,03,09,06,07,-3.40
2019,03,09,06,08,-3.40
2019,03,09,06,09,-3.40
2019,03,09,06,10,-3.40
2019,03,09,06,11,-3.40
2019,03,09,06,12,-3.50
2019,03,09,06,13,-3.50
2019,03,09,06,14,-3.50
2019,03,09,06,15,-3.50
2019,03,09,06,16,-3.50
2019,03,09,06,17,-3.50
2019,03,09,06,18,-3.50
2019,03,09,06,19,-3.50
2019,03,09,06,20,-3.60
2019,03,09,06,21,-3.50
2019,03,09,06,22,-3.60
2019,03,09,06,23,-3.60
2019,03,09,06,24,-3.60
2019,03,09,06,25,-3.60
2019,03,09,06,26,-3.60
2019,03,09,06,27,-3.60
2019,03,09,06,28,-3.60
2019,03,09,06,29,-3.60
2019,03,09,06,30,-3.60
2019,03,09,06,31,-3.60
2019,03,09,06,32,-3.60
2019,03,09,06,33,-3.60
2019,03,09,06,34,-3.60
2019,03,09,06,35,-3.60
2019,03,09,06,36,-3.60
2019,03,09,06,37,-3.60
2019,03,09,06,38,-3.60
2019,03,09,06,39,-3.60
2019,03,09,06,40,-3.70
2019,03,09,06,41,-3.70
2019,03,09,06,42,-3.70
2019,03,09,06,43,-3.70
2019,03,09,06,44,-3.70
2019,03,09,06,45,-3.70
2019,03,09,06,46,-3.70
2019,03,09,06,47,-3.70
2019,03,09,06,48,-3.70
2019,03,09,06,49,-3.70
2019,03,09,06,50,-3.70
2019,03,09,06,51,-3.70
2019,03,09,06,52,-3.80
2019,03,09,06,53,-3.80
2019,03,09,06,54,-3.80
2019,03,09,06,55,-3.80
2019,03,09,06,56,-3.80
2019,03,09,06,57,-3.80
2019,03,09,06,58,-3.80
2019,03,09,06,59,-3.80
2019,03,09,07,00,-3.80
2019,03,09,07,01,-3.80
2019,03,09,07,02,-3.80
2019,03,09,07,03,-3.80
2019,03,09,07,04,-3.80
2019,03,09,07,05,-3.80
2019,03,09,07,06,-3.80
2019,03,09,07,07,-3.80
2019,03,09,07,08,-3.70
2019,03,09,07,09,-3.80
2019,03,09,07,10,-3.70
2019,03,09,07,11,-3.70
2019,03,09,07,12,-3.70
2019,03,09,07,13,-3.70
2019,03,09,07,14,-3.70
2019,03,09,07,15,-3.70
2019,03,09,07,16,-3.70
2019,03,09,07,17,-3.70
2019,03,09,07,18,-3.70
2019,03,09,07,19,-3.70
2019,03,09,07,20,-3.70
2019,03,09,07,21,-3.70
2019,03,09,07,22,-3.70
2019,03,09,07,23,-3.70
2019,03,09,07,24,-3.70
2019,03,09,07,25,-3.70
2019,03,09,07,26,-3.70
2019,03,09,07,27,-3.70
2019,03,09,07,28,-3.60
2019,03,09,07,29,-3.60
2019,03,09,07,30,-3.60
2019,03,09,07,31,-3.60
2019,03,09,07,32,-3.60
2019,03,09,07,34,-3.60
2019,03,09,07,35,-3.60
2019,03,09,07,36,-3.60
2019,03,09,07,37,-3.50
2019,03,09,07,38,-3.50
2019,03,09,07,39,-3.50
2019,03,09,07,40,-3.50
2019,03,09,07,41,-3.50
2019,03,09,07,42,-3.50
2019,03,09,07,43,-3.50
2019,03,09,07,44,-3.40
2019,03,09,07,45,-3.40
2019,03,09,07,47,-3.40
2019,03,09,07,48,-3.40
2019,03,09,07,49,-3.30
2019,03,09,07,50,-3.30
2019,03,09,07,51,-3.30
2019,03,09,07,52,-3.30
2019,03,09,07,53,-3.30
2019,03,09,07,54,-3.30
2019,03,09,07,55,-3.20
2019,03,09,07,56,-3.20
2019,03,09,07,57,-3.20
2019,03,09,07,58,-3.20
2019,03,09,07,59,-3.10
2019,03,09,08,00,-3.10
2019,03,09,08,01,-3.10
2019,03,09,08,02,-3.00
2019,03,09,08,03,-3.00
2019,03,09,08,04,-2.90
2019,03,09,08,05,-2.90
2019,03,09,08,06,-2.90
2019,03,09,08,07,-2.80
2019,03,09,08,08,-2.80
2019,03,09,08,09,-2.80
2019,03,09,08,10,-2.80
2019,03,09,08,11,-2.80
2019,03,09,08,12,-2.80
2019,03,09,08,13,-2.70
2019,03,09,08,14,-2.70
2019,03,09,08,15,-2.70
2019,03,09,08,16,-2.70
2019,03,09,08,17,-2.70
2019,03,09,08,18,-2.70
2019,03,09,08,19,-2.70
2019,03,09,08,20,-2.70
2019,03,09,08,21,-2.70
2019,03,09,08,22,-2.70
2019,03,09,08,23,-2.70
2019,03,09,08,24,-2.60
2019,03,09,08,25,-2.60
2019,03,09,08,26,-2.60
2019,03,09,08,27,-2.60
2019,03,09,08,28,-2.60
2019,03,09,08,29,-2.60
2019,03,09,08,30,-2.50
2019,03,09,08,31,-2.50
2019,03,09,08,32,-2.40
2019,03,09,08,33,-2.40
2019,03,09,08,34,-2.30
2019,03,09,08,35,-2.30
2019,03,09,08,36,-2.30
2019,03,09,08,37,-2.20
2019,03,09,08,38,-2.20
2019,03,09,08,39,-2.20
2019,03,09,08,40,-2.10
2019,03,09,08,41,-2.10
2019,03,09,08,42,-2.00
2019,03,09,08,43,-2.00
2019,03,09,08,44,-1.90
2019,03,09,08,45,-1.90
2019,03,09,08,46,-1.90
2019,03,09,08,47,-1.90
2019,03,09,08,48,-1.90
2019,03,09,08,49,-1.80
2019,03,09,08,50,-1.80
2019,03,09,08,51,-1.80
2019,03,09,08,52,-1.80
2019,03,09,08,53,-1.70
2019,03,09,08,54,-1.70
2019,03,09,08,55,-1.70
2019,03,09,08,56,-1.60
2019,03,09,08,57,-1.60
2019,03,09,08,58,-1.60
2019,03,09,08,59,-1.50
2019,03,09,09,00,-1.40
2019,03,09,09,01,-1.40
2019,03,09,09,03,-1.30
2019,03,09,09,05,-1.30
2019,03,09,09,06,-1.20
2019,03,09,09,07,-1.20
2019,03,09,09,08,-1.20
2019,03,09,09,09,-1.10
2019,03,09,09,10,-1.00
2019,03,09,09,11,-0.90
2019,03,09,09,12,-0.90
2019,03,09,09,13,-0.80
2019,03,09,09,14,-0.80
2019,03,09,09,15,-0.70
2019,03,09,09,16,-0.70
2019,03,09,09,17,-0.60
2019,03,09,09,18,-0.60
2019,03,09,09,19,-0.50
2019,03,09,09,20,-0.40
2019,03,09,09,21,-0.40
2019,03,09,09,22,-0.30
2019,03,09,09,23,-0.30
2019,03,09,09,24,-0.20
2019,03,09,09,25,-0.20
2019,03,09,09,26,-0.10
2019,03,09,09,27,0.00
2019,03,09,09,28,0.10
2019,03,09,09,30,0.20
2019,03,09,09,31,0.20
2019,03,09,09,32,0.20
2019,03,09,09,33,0.30
2019,03,09,09,34,0.30
2019,03,09,09,35,0.40
2019,03,09,09,36,0.40
2019,03,09,09,37,0.40
2019,03,09,09,38,0.50
2019,03,09,09,39,0.50
2019,03,09,09,40,0.60
2019,03,09,09,41,0.60
2019,03,09,09,42,0.70
2019,03,09,09,43,0.70
2019,03,09,09,44,0.70
2019,03,09,09,45,0.80
2019,03,09,09,46,0.80
2019,03,09,09,47,0.80
2019,03,09,09,48,0.80
2019,03,09,09,49,0.90
2019,03,09,09,50,0.90
2019,03,09,09,51,0.90
2019,03,09,09,52,1.00
2019,03,09,09,53,1.10
2019,03,09,09,54,1.10
2019,03,09,09,55,1.10
2019,03,09,09,56,1.20
2019,03,09,09,57,1.20
2019,03,09,09,58,1.30
2019,03,09,09,59,1.30
2019,03,09,10,00,1.30
2019,03,09,10,01,1.40
2019,03,09,10,02,1.40
2019,03,09,10,03,1.50
2019,03,09,10,04,1.60
2019,03,09,10,05,1.60
2019,03,09,10,06,1.70
2019,03,09,10,07,1.80
2019,03,09,10,08,1.80
2019,03,09,10,09,1.90
2019,03,09,10,10,2.00
2019,03,09,10,11,2.10
2019,03,09,10,12,2.10
2019,03,09,10,13,2.20
2019,03,09,10,14,2.20
2019,03,09,10,15,2.30
2019,03,09,10,16,2.30
2019,03,09,10,17,2.30
2019,03,09,10,18,2.30
2019,03,09,10,19,2.40
2019,03,09,10,20,2.40
2019,03,09,10,21,2.50
2019,03,09,10,22,2.60
2019,03,09,10,23,2.70
2019,03,09,10,24,2.80
2019,03,09,10,25,2.80
2019,03,09,10,26,2.90
2019,03,09,10,27,2.90
2019,03,09,10,28,3.00
2019,03,09,10,29,3.10
2019,03,09,10,30,3.10
2019,03,09,10,31,3.10
2019,03,09,10,32,3.20
2019,03,09,10,33,3.20
2019,03,09,10,34,3.20
2019,03,09,10,35,3.30
2019,03,09,10,36,3.30
2019,03,09,10,37,3.40
2019,03,09,10,38,3.40
2019,03,09,10,39,3.30
2019,03,09,10,40,3.30
2019,03,09,10,41,3.30
2019,03,09,10,42,3.30
2019,03,09,10,43,3.30
2019,03,09,10,44,3.40
2019,03,09,10,45,3.40
2019,03,09,10,46,3.50
2019,03,09,10,47,3.60
2019,03,09,10,48,3.70
2019,03,09,10,49,3.80
2019,03,09,10,51,4.00
2019,03,09,10,52,4.10
2019,03,09,10,53,4.20
2019,03,09,10,54,4.30
2019,03,09,10,55,4.30
2019,03,09,10,56,4.40
2019,03,09,10,57,4.50
2019,03,09,10,58,4.50
2019,03,09,10,59,4.60
2019,03,09,11,00,4.60
2019,03,09,11,01,4.60
2019,03,09,11,02,4.60
2019,03,09,11,03,4.60
2019,03,09,11,04,4.60
2019,03,09,11,05,4.60
2019,03,09,11,06,4.70
2019,03,09,11,07,4.70
2019,03,09,11,08,4.80
2019,03,09,11,09,4.80
2019,03,09,11,10,4.90
2019,03,09,11,11,4.90
2019,03,09,11,12,5.00
2019,03,09,11,13,5.10
2019,03,09,11,14,5.20
2019,03,09,11,15,5.20
2019,03,09,11,16,5.20
2019,03,09,11,17,5.30
2019,03,09,11,18,5.40
2019,03,09,11,19,5.40
2019,03,09,11,20,5.50
2019,03,09,11,21,5.60
2019,03,09,11,22,5.60
2019,03,09,11,23,5.70
2019,03,09,11,24,5.70
2019,03,09,11,25,5.70
2019,03,09,11,26,5.80
2019,03,09,11,27,5.80
2019,03,09,11,28,5.90
2019,03,09,11,29,5.90
2019,03,09,11,30,6.10
2019,03,09,11,32,6.20
2019,03,09,11,33,6.20
2019,03,09,11,35,6.30
2019,03,09,11,36,6.40
2019,03,09,11,37,6.40
2019,03,09,11,38,6.40
2019,03,09,11,39,6.40
2019,03,09,11,40,6.40
2019,03,09,11,41,6.50
2019,03,09,11,42,6.60
2019,03,09,11,43,6.70
2019,03,09,11,44,6.70
2019,03,09,11,45,6.70
2019,03,09,11,46,6.80
2019,03,09,11,47,6.80
2019,03,09,11,48,6.80
2019,03,09,11,49,6.80
2019,03,09,11,50,6.90
2019,03,09,11,51,6.90
2019,03,09,11,52,7.00
2019,03,09,11,53,7.10
2019,03,09,11,54,7.10
2019,03,09,11,55,7.20
2019,03,09,11,56,7.20
2019,03,09,11,57,7.30
2019,03,09,11,58,7.40
2019,03,09,11,59,7.40
2019,03,09,12,00,7.60
2019,03,09,12,01,7.60
2019,03,09,12,02,7.60
2019,03,09,12,03,7.70
2019,03,09,12,04,7.70
2019,03,09,12,05,7.70
2019,03,09,12,06,7.70
2019,03,09,12,07,7.80
2019,03,09,12,08,7.80
2019,03,09,12,09,7.90
2019,03,09,12,10,7.90
2019,03,09,12,11,8.00
2019,03,09,12,12,8.10
2019,03,09,12,13,8.10
2019,03,09,12,14,8.20
2019,03,09,12,15,8.20
2019,03,09,12,16,8.30
2019,03,09,12,17,8.30
2019,03,09,12,18,8.40
2019,03,09,12,19,8.40
2019,03,09,12,20,8.50
2019,03,09,12,21,8.50
2019,03,09,12,22,8.50
2019,03,09,12,23,8.60
2019,03,09,12,24,8.60
2019,03,09,12,25,8.60
2019,03,09,12,26,8.70
2019,03,09,12,27,8.70
2019,03,09,12,29,8.70
2019,03,09,12,30,8.70
2019,03,09,12,31,8.70
2019,03,09,12,32,8.70
2019,03,09,12,33,8.70
2019,03,09,12,34,8.70
2019,03,09,12,35,8.80
2019,03,09,12,36,8.80
2019,03,09,12,37,8.80
2019,03,09,12,38,8.80
2019,03,09,12,39,8.90
2019,03,09,12,40,8.90
2019,03,09,12,41,8.90
2019,03,09,12,42,9.00
2019,03,09,12,43,9.00
2019,03,09,12,44,9.10
2019,03,09,12,45,9.10
2019,03,09,12,46,9.10
2019,03,09,12,47,9.20
2019,03,09,12,48,9.30
2019,03,09,12,49,9.30
2019,03,09,12,50,9.40
2019,03,09,12,51,9.40
2019,03,09,12,52,9.50
2019,03,09,12,53,9.50
2019,03,09,12,54,9.60
2019,03,09,12,55,9.60
2019,03,09,12,56,9.60
2019,03,09,12,57,9.70
2019,03,09,12,58,9.70
2019,03,09,12,59,9.80
2019,03,09,13,00,9.80
2019,03,09,13,01,9.90
2019,03,09,13,02,9.90
2019,03,09,13,03,10.00
2019,03,09,13,04,10.00
2019,03,09,13,05,10.10
2019,03,09,13,06,10.10
2019,03,09,13,07,10.10
2019,03,09,13,08,10.10
2019,03,09,13,09,10.20
2019,03,09,13,10,10.20
2019,03,09,13,12,10.20
2019,03,09,13,13,10.20
2019,03,09,13,14,10.20
2019,03,09,13,15,10.20
2019,03,09,13,16,10.20
2019,03,09,13,17,10.10
2019,03,09,13,18,10.10
2019,03,09,13,19,10.10
2019,03,09,13,20,10.00
2019,03,09,13,21,10.00
2019,03,09,13,22,10.00
2019,03,09,13,23,9.90
2019,03,09,13,24,10.00
2019,03,09,13,25,10.10
2019,03,09,13,26,10.10
2019,03,09,13,27,10.10
2019,03,09,13,28,10.20
2019,03,09,13,29,10.30
2019,03,09,13,30,10.30
2019,03,09,13,32,10.40
2019,03,09,13,34,10.30
2019,03,09,13,35,10.30
2019,03,09,13,36,10.30
2019,03,09,13,37,10.30
2019,03,09,13,38,10.30
2019,03,09,13,39,10.30
2019,03,09,13,40,10.30
2019,03,09,13,41,10.30
2019,03,09,13,42,10.30
2019,03,09,13,43,10.30
2019,03,09,13,44,10.30
2019,03,09,13,45,10.30
2019,03,09,13,46,10.30
2019,03,09,13,47,10.30
2019,03,09,13,48,10.30
2019,03,09,13,49,10.30
2019,03,09,13,50,10.30
2019,03,09,13,51,10.30
2019,03,09,13,52,10.30
2019,03,09,13,53,10.40
2019,03,09,13,54,10.40
2019,03,09,13,55,10.40
2019,03,09,13,56,10.40
2019,03,09,13,57,10.40
2019,03,09,13,58,10.40
2019,03,09,13,59,10.40
2019,03,09,14,00,10.30
2019,03,09,14,01,10.30
2019,03,09,14,02,10.30
2019,03,09,14,03,10.30
2019,03,09,14,04,10.30
2019,03,09,14,05,10.40
2019,03,09,14,06,10.40
2019,03,09,14,07,10.60
2019,03,09,14,08,10.60
2019,03,09,14,09,10.70
2019,03,09,14,10,10.70
2019,03,09,14,11,10.70
2019,03,09,14,12,10.70
2019,03,09,14,13,10.70
2019,03,09,14,14,10.80
2019,03,09,14,15,10.80
2019,03,09,14,16,10.90
2019,03,09,14,17,10.80
2019,03,09,14,18,10.70
2019,03,09,14,19,10.70
2019,03,09,14,20,10.70
2019,03,09,14,21,10.70
2019,03,09,14,22,10.70
2019,03,09,14,23,10.70
2019,03,09,14,24,10.60
2019,03,09,14,25,10.60
2019,03,09,14,26,10.60
2019,03,09,14,27,10.60
2019,03,09,14,28,10.70
2019,03,09,14,29,10.80
2019,03,09,14,30,10.90
2019,03,09,14,31,11.00
2019,03,09,14,32,11.10
2019,03,09,14,33,11.20
2019,03,09,14,34,11.10
2019,03,09,14,35,11.20
2019,03,09,14,36,11.20
2019,03,09,14,37,11.20
2019,03,09,14,38,11.30
2019,03,09,14,39,11.30
2019,03,09,14,40,11.30
2019,03,09,14,41,11.30
2019,03,09,14,42,11.30
2019,03,09,14,43,11.30
2019,03,09,14,44,11.20
2019,03,09,14,45,11.20
2019,03,09,14,46,11.10
2019,03,09,14,47,11.10
2019,03,09,14,48,11.10
2019,03,09,14,49,11.00
2019,03,09,14,50,11.00
2019,03,09,14,51,11.00
2019,03,09,14,52,10.90
2019,03,09,14,53,10.90
2019,03,09,14,54,10.90
2019,03,09,14,55,11.00
2019,03,09,14,56,11.00
2019,03,09,14,57,11.00
2019,03,09,14,58,11.00
2019,03,09,14,59,11.00
2019,03,09,15,00,11.10
2019,03,09,15,01,11.10
2019,03,09,15,02,11.10
2019,03,09,15,03,11.10
2019,03,09,15,04,11.10
2019,03,09,15,05,11.20
2019,03,09,15,06,11.20
2019,03,09,15,07,11.20
2019,03,09,15,08,11.20
2019,03,09,15,09,11.20
2019,03,09,15,10,11.20
2019,03,09,15,11,11.20
2019,03,09,15,12,11.20
2019,03,09,15,13,11.20
2019,03,09,15,14,11.20
2019,03,09,15,15,11.30
2019,03,09,15,16,11.30
2019,03,09,15,17,11.40
2019,03,09,15,18,11.40
2019,03,09,15,19,11.40
2019,03,09,15,20,11.40
2019,03,09,15,21,11.40
2019,03,09,15,22,11.30
2019,03,09,15,23,11.30
2019,03,09,15,24,11.20
2019,03,09,15,25,11.20
2019,03,09,15,26,11.20
2019,03,09,15,27,11.20
2019,03,09,15,28,11.20
2019,03,09,15,29,11.10
2019,03,09,15,30,11.10
2019,03,09,15,32,11.00
2019,03,09,15,33,10.80
2019,03,09,15,34,10.80
2019,03,09,15,35,10.70
2019,03,09,15,36,10.70
2019,03,09,15,37,10.50
2019,03,09,15,38,10.40
2019,03,09,15,39,10.30
2019,03,09,15,40,10.30
2019,03,09,15,41,10.30
2019,03,09,15,42,10.30
2019,03,09,15,43,10.30
2019,03,09,15,44,10.40
2019,03,09,15,45,10.40
2019,03,09,15,46,10.50
2019,03,09,15,47,10.60
2019,03,09,15,48,10.60
2019,03,09,15,49,10.70
2019,03,09,15,50,10.80
2019,03,09,15,51,10.80
2019,03,09,15,52,10.90
2019,03,09,15,53,10.90
2019,03,09,15,54,11.00
2019,03,09,15,55,11.10
2019,03,09,15,56,11.10
2019,03,09,15,57,11.20
2019,03,09,15,58,11.30
2019,03,09,15,59,11.30
2019,03,09,16,00,11.40
2019,03,09,16,01,11.40
2019,03,09,16,02,11.40
2019,03,09,16,03,11.40
2019,03,09,16,04,11.40
2019,03,09,16,05,11.30
2019,03,09,16,06,11.20
2019,03,09,16,07,11.10
2019,03,09,16,09,11.00
2019,03,09,16,10,10.90
2019,03,09,16,11,11.00
2019,03,09,16,12,11.00
2019,03,09,16,13,10.90
2019,03,09,16,14,10.90
2019,03,09,16,15,10.90
2019,03,09,16,16,10.90
2019,03,09,16,17,10.90
2019,03,09,16,18,10.90
2019,03,09,16,19,10.80
2019,03,09,16,20,10.70
2019,03,09,16,21,10.70
2019,03,09,16,22,10.70
2019,03,09,16,23,10.60
2019,03,09,16,24,10.60
2019,03,09,16,25,10.60
2019,03,09,16,26,10.50
2019,03,09,16,27,10.50
2019,03,09,16,28,10.50
2019,03,09,16,29,10.50
2019,03,09,16,30,10.40
2019,03,09,16,31,10.40
2019,03,09,16,32,10.40
2019,03,09,16,33,10.30
2019,03,09,16,34,10.20
2019,03,09,16,36,10.20
2019,03,09,16,37,10.20
2019,03,09,16,38,10.20
2019,03,09,16,39,10.20
2019,03,09,16,40,10.10
2019,03,09,16,42,10.10
2019,03,09,16,43,10.10
2019,03,09,16,44,10.10
2019,03,09,16,45,9.90
2019,03,09,16,46,9.80
2019,03,09,16,47,9.80
2019,03,09,16,48,9.70
2019,03,09,16,49,9.70
2019,03,09,16,50,9.70
2019,03,09,16,51,9.80
2019,03,09,16,52,9.80
2019,03,09,16,53,9.80
2019,03,09,16,54,9.80
2019,03,09,16,55,9.80
2019,03,09,16,56,9.80
2019,03,09,16,57,9.80
2019,03,09,16,58,9.70
2019,03,09,16,59,9.70
2019,03,09,17,00,9.60
2019,03,09,17,01,9.60
2019,03,09,17,02,9.50
2019,03,09,17,03,9.40
2019,03,09,17,04,9.40
2019,03,09,17,05,9.30
2019,03,09,17,06,9.30
2019,03,09,17,07,9.20
2019,03,09,17,08,9.10
2019,03,09,17,09,9.10
2019,03,09,17,10,9.10
2019,03,09,17,11,9.10
2019,03,09,17,12,9.10
2019,03,09,17,13,9.00
2019,03,09,17,14,9.00
2019,03,09,17,15,8.90
2019,03,09,17,16,8.90
2019,03,09,17,17,8.80
2019,03,09,17,18,8.80
2019,03,09,17,19,8.80
2019,03,09,17,20,8.70
2019,03,09,17,21,8.70
2019,03,09,17,22,8.70
2019,03,09,17,23,8.70
2019,03,09,17,24,8.60
2019,03,09,17,25,8.60
2019,03,09,17,26,8.60
2019,03,09,17,27,8.50
2019,03,09,17,28,8.40
2019,03,09,17,29,8.40
2019,03,09,17,30,8.30
2019,03,09,17,31,8.30
2019,03,09,17,32,8.20
2019,03,09,17,33,8.20
2019,03,09,17,34,8.10
2019,03,09,17,35,8.10
2019,03,09,17,36,8.00
2019,03,09,17,38,7.90
2019,03,09,17,39,7.80
2019,03,09,17,40,7.80
2019,03,09,17,41,7.80
2019,03,09,17,42,7.70
2019,03,09,17,43,7.70
2019,03,09,17,44,7.70
2019,03,09,17,45,7.70
2019,03,09,17,46,7.60
2019,03,09,17,47,7.60
2019,03,09,17,48,7.60
2019,03,09,17,49,7.60
2019,03,09,17,50,7.50
2019,03,09,17,51,7.50
2019,03,09,17,52,7.50
2019,03,09,17,53,7.40
2019,03,09,17,54,7.40
2019,03,09,17,55,7.40
2019,03,09,17,56,7.30